Flag for Peru Weather past 2 weeks in Arequipa, Arequipa, Peru

Now
54 °F

Clear.


Feels Like: 53 °F
Forecast: 50 / 74 °F
Wind: 5 mph from East

Location: Arequipa Airport

Current Time: Aug 1, 2014 at 9:43:30 PM

Latest Report: Aug 1, 2014 at 9:00 PM


Visibility: 10 mi

Pressure: 30.33 "Hg

Humidity: 21%

Dew point: 14 °F

Location of ArequipaLocation

Historic Weather in Arequipa — Graph

°F

Arequipa temperature yesterday

Maximum temperature yesterday: 72 °F (at 11:00 AM)
Minimum temperature yesterday: 50 °F (at 2:00 AM)
Average temperature yesterday: 61 °F

Past Weeks' High & Low Weather Summary

 TemperatureHumidityPressure
High75 °F (Jul 29, 12:00 PM)64% (Jul 20, 9:00 AM)30.39 "Hg (Jul 20, 9:00 AM)
Low45 °F (Jul 23, 6:00 AM)4% (Jul 24, 11:00 AM)30.18 "Hg (Jul 24, 2:00 PM)
Average59 °F16%30.32 "Hg
* Reported Jul 17 8:00 PM — Aug 1 8:00 PM, Arequipa, Weather by CustomWeather, © 2014

Note: Actual official high and low records may vary slightly from our data, if they occured in-between our weather recording intervals... More about our weather records

Advertising

Arequipa weather history for previous 24 hours

 ConditionsComfort  
Time TempWeatherWind HumidityBarometerVisibility
8:00 PM
Aug 1
55 °FClear.7 mph21%30.33 "Hg10 mi
7:00 PM61 °FClear.8 mph19%30.30 "Hg10 mi
6:00 PM61 °FClear.12 mph19%30.30 "Hg10 mi
5:00 PM64 °FSunny.15 mph15%30.27 "Hg10 mi
4:00 PM68 °FPassing clouds.14 mph13%30.24 "HgN/A
3:00 PM70 °FPassing clouds.14 mph13%30.24 "HgN/A
2:00 PM72 °FPassing clouds.13 mph12%30.27 "HgN/A
1:00 PM72 °FPassing clouds.13 mph13%30.27 "HgN/A
12:00 PM72 °FSunny.9 mph10%30.30 "Hg10 mi
11:00 AM73 °FSunny.6 mph8%30.30 "Hg10 mi
10:00 AM70 °FSunny.10 mph9%30.30 "Hg10 mi
9:00 AM68 °FSunny.16 mph10%30.30 "Hg10 mi
8:00 AM64 °FSunny.8 mph9%30.30 "Hg10 mi
7:00 AM54 °FSunny.15 mph13%30.30 "Hg10 mi
6:00 AM50 °FClear.13 mph13%30.27 "Hg10 mi
5:00 AM52 °FClear.8 mph19%30.27 "Hg10 mi
4:00 AM48 °FClear.8 mph21%30.27 "Hg10 mi
3:00 AM50 °FClear.13 mph19%30.27 "Hg10 mi
2:00 AM54 °FClear.10 mph18%30.30 "Hg10 mi
1:00 AM54 °FClear.8 mph19%30.30 "Hg10 mi
12:00 AM54 °FClear.9 mph21%30.33 "Hg10 mi
11:00 PM
Jul 31
54 °FClear.3 mph21%30.33 "Hg10 mi
10:00 PM55 °FClear.9 mph21%30.33 "Hg10 mi
9:00 PM55 °FClear.8 mph23%30.36 "Hg10 mi
Weather by CustomWeather, © 2014

See weather overviewHow to use our weather pages